Station CBRW3 - Chambers Island, WI Image indicating link to RSS feed of recent meteorological observations for station CBRW3


Conditions at CBRW3 as of
(10:40 am CDT)
1540 GMT on 04/15/2024:
     

Click on the graph icon in the table below to see a time series plot of the last five days of that observation.

5-day plot - Wind Direction Wind Direction (WDIR): W ( 270 deg true )
5-day plot - Wind Speed Wind Speed (WSPD): 5.1 kts
5-day plot - Wind Gust Wind Gust (GST): 7.0 kts
5-day plot - Air Temperature Air Temperature (ATMP): 57.9 °F
5-day plot - Wind Speed at 10 Meters Wind Speed at 10 meters (WSPD10M): 5.8 kts
5-day plot - Wind Speed at 20 Meters Wind Speed at 20 meters (WSPD20M): 5.8 kts
5-day plot -  Wind Speed, Wind Gust and Atmospheric Pressure Combined plot of Wind Speed, Gust, and Air Pressure
Previous observations
TIME
(CDT)
5-day plot - Wind Direction
WDIR
 
5-day plot - Wind Speed
WSPD
kts
5-day plot - Wind Gust
GST
kts
5-day plot - Wave Height
WVHT
ft
5-day plot - Dominant Wave Period
DPD
sec
5-day plot - Average Wave Period
APD
sec
5-day plot - Mean Wave Direction
MWD
 
5-day plot - Atmospheric Pressure
PRES
in
5-day plot - Pressure Tendency
PTDY
in
5-day plot - Air Temperature
ATMP
°F
5-day plot - Water Temperature
WTMP
°F
5-day plot - Dew Point
DEWP
°F
5-day plot - Salinity
SAL
psu
5-day plot - Visibility
VIS
nmi
5-day plot - Tide (above MLLW)
TIDE
ft
2024-04-15 10:30 amWSW 4.1 6.0------ 59.0-----
2024-04-15 10:20 amSSW 4.1 6.0------ 57.2-----
2024-04-15 10:10 am SW 4.1 7.0------ 57.2-----
2024-04-15 10:00 am S 4.1 6.0------ 55.4-----
2024-04-15 09:50 am S 4.1 6.0------ 54.9-----
2024-04-15 09:40 am S-------- 54.0-----
2024-04-15 09:30 am S 5.1 7.0------ 52.2-----
2024-04-15 09:20 am S 4.1 7.0------ 51.8-----
2024-04-15 09:10 am S 4.1 8.0------ 50.7-----
2024-04-15 09:00 am S 4.1 7.0------ 50.4-----
2024-04-15 08:50 am S 5.1 8.9------ 49.8-----
2024-04-15 08:40 am S 6.0 9.9------------
2024-04-15 08:30 amSSE 6.0------- 49.1-----
2024-04-15 08:20 amSSE 5.1 8.9------ 49.5-----
2024-04-15 08:10 am S 6.0 9.9------ 49.5-----
2024-04-15 08:00 am S 5.1 8.0------ 49.3-----
2024-04-15 07:50 am S 4.1------- 49.3-----
2024-04-15 07:40 am S 6.0 9.9------ 48.4-----
2024-04-15 07:30 am S 6.0 8.9------ 47.8-----
2024-04-15 07:20 am S 5.1 9.9------ 46.8-----
2024-04-15 07:10 am S 6.0 8.9------ 45.9-----
2024-04-15 07:00 am S 6.0 8.9------ 45.1-----
2024-04-15 06:50 am S 6.0 8.9------ 43.7-----
2024-04-15 06:40 amSSE 5.1------- 42.4-----
2024-04-15 06:30 am S 4.1 6.0------ 41.2-----
2024-04-15 06:20 amSSE 4.1 6.0------ 40.3-----
2024-04-15 06:10 am S 5.1 6.0------ 41.4-----
2024-04-15 06:00 am S 4.1 6.0------ 41.5-----
2024-04-15 05:50 am S 4.1 6.0------------
2024-04-15 05:40 am S 4.1 7.0------------
2024-04-15 05:30 am S 5.1 7.0------ 41.2-----
2024-04-15 05:20 am S 5.1 7.0------------
2024-04-15 05:10 am S 4.1 7.0------ 41.9-----
2024-04-15 05:00 amSSW 4.1 6.0------ 41.9-----
2024-04-15 04:50 amSSW 4.1 6.0------ 41.7-----
2024-04-15 04:40 amSSW 2.9 6.0------ 41.4-----
2024-04-15 04:30 amSSW 4.1------- 41.2-----
2024-04-15 04:20 amSSW 5.1 7.0------------
2024-04-15 04:10 am S 4.1 5.1------ 38.3-----
2024-04-15 04:00 amSSW 2.9 5.1------ 39.4-----
2024-04-15 03:50 amSSW 2.9 4.1------ 38.1-----
2024-04-15 03:40 amSSW 2.9 5.1------ 37.8-----
2024-04-15 03:30 amSSW 1.9 2.9------ 36.0-----
2024-04-15 03:20 am- 0.0 2.9------ 36.5-----
2024-04-15 03:10 amSSW 1.9 2.9------ 37.2-----
2024-04-15 03:00 am- 0.0 1.9------ 36.5-----
2024-04-15 02:50 am SW 1.0 2.9------ 37.0-----
2024-04-15 02:40 amSSW-------- 38.1-----
2024-04-15 02:30 amSSW 2.9 5.1------ 38.7-----
2024-04-15 02:20 amSSW 4.1 5.1------ 36.7-----
2024-04-15 02:10 am S 2.9 2.9------ 35.6-----
2024-04-15 02:00 am S 2.9 2.9------ 35.8-----
2024-04-15 01:50 am- 0.0 0.0------ 36.1-----
2024-04-15 01:40 am- 0.0 1.0------ 36.9-----
2024-04-15 01:30 am- 0.0 1.9------ 37.2-----
2024-04-15 01:20 am- 0.0 1.9------ 36.5-----
2024-04-15 01:10 am S 1.9 1.9------ 37.2-----
2024-04-15 01:00 am S 1.9 2.9------ 36.7-----
2024-04-15 12:50 am S 1.9 2.9------ 36.3-----
2024-04-15 12:40 am- 0.0 2.9------ 36.9-----
2024-04-15 12:30 am S 2.9 4.1------ 37.4-----
2024-04-15 12:20 am S 2.9 2.9------ 37.2-----
2024-04-15 12:10 am S 1.9 1.9------ 37.2-----
2024-04-15 12:00 am- 0.0 0.0------ 38.1-----
2024-04-14 11:50 pm- 0.0 0.0------ 37.8-----
2024-04-14 11:40 pm- 0.0 1.0------ 38.1-----
2024-04-14 11:30 pm- 0.0 2.9------ 38.5-----
2024-04-14 11:20 pm S 1.9 2.9------ 38.5-----
2024-04-14 11:10 pm- 0.0 2.9------ 39.0-----
2024-04-14 11:00 pm S 1.0 2.9------ 39.4-----
2024-04-14 10:50 pm SE 1.9 1.9------ 39.6-----
2024-04-14 10:40 pm- 0.0 1.0------ 39.9-----
2024-04-14 10:30 pm- 0.0 1.9------------
2024-04-14 10:20 pm- 0.0 1.0------ 43.3-----
2024-04-14 10:10 pm- 0.0 1.9------ 44.2-----
2024-04-14 10:00 pm E 1.9 2.9------ 44.2-----
2024-04-14 09:50 pmESE 1.0 2.9------ 44.6-----
2024-04-14 09:40 pm E 1.9 4.1------ 45.0-----
2024-04-14 09:30 pmENE 1.9 2.9------ 45.1-----
2024-04-14 09:20 pm NE 2.9------- 45.3-----
2024-04-14 09:10 pmENE 1.9 5.1------ 45.3-----
2024-04-14 09:00 pm NE 1.9 2.9------ 44.1-----
2024-04-14 08:50 pmNNE 1.0 2.9------ 44.4-----
2024-04-14 08:40 pm- 0.0 2.9------ 45.0-----
2024-04-14 08:30 pm NW 1.0 2.9------ 44.8-----
2024-04-14 08:20 pm- 0.0 1.0------ 45.9-----
2024-04-14 08:10 pm- 0.0 4.1------ 47.5-----
2024-04-14 08:00 pmENE 2.9 5.1------ 48.6-----
2024-04-14 07:50 pmENE 4.1 6.0------ 49.1-----
2024-04-14 07:40 pm NE 5.1 8.0------ 49.6-----
2024-04-14 07:30 pmENE 5.1 9.9------ 50.0-----
2024-04-14 07:20 pm NE 8.0 9.9------ 50.2-----
2024-04-14 07:10 pm NE 8.0 9.9------ 50.7-----
2024-04-14 07:00 pm NE 8.9 12.0------ 51.8-----
2024-04-14 06:50 pm NE 8.9 14.0------ 51.6-----
2024-04-14 06:40 pm NE 9.9 14.0------ 52.5-----
2024-04-14 06:30 pm NE 11.1 13.0------ 52.5-----
2024-04-14 06:20 pm NE 8.9------- 52.5-----
2024-04-14 06:10 pmNNE 9.9 15.0------ 53.1-----
2024-04-14 06:00 pm NE 8.9 13.0------ 52.3-----
2024-04-14 05:50 pm NE 9.9 13.0------ 54.5-----
2024-04-14 05:40 pmNNE 8.9 13.0------ 56.5-----
2024-04-14 05:30 pm NE 8.9 13.0------ 56.5-----
2024-04-14 05:20 pmNNE 8.9 15.0------ 56.3-----
2024-04-14 05:10 pm NE 9.9 15.0------ 57.7-----
2024-04-14 05:00 pm NE 8.9 13.0------ 56.7-----
2024-04-14 04:50 pm NE 7.0 12.0------ 56.5-----
2024-04-14 04:40 pm NE 8.0 13.0------ 56.8-----
2024-04-14 04:30 pm NE 7.0 11.1------ 56.8-----
2024-04-14 04:20 pmENE 7.0 11.1------ 57.0-----
2024-04-14 04:10 pm NE 9.9 13.0------ 55.6-----
2024-04-14 04:00 pm NE 7.0 9.9------ 57.6-----
2024-04-14 03:50 pm NE 6.0 8.0------ 60.3-----
2024-04-14 03:40 pm NE 6.0 8.9------ 60.1-----
2024-04-14 03:30 pmENE 7.0 12.0------ 62.2-----
2024-04-14 03:20 pmENE 2.9 5.1------ 64.2-----
2024-04-14 03:10 pmENE 4.1 5.1------ 63.5-----
2024-04-14 03:00 pm NE 4.1 5.1------ 63.1-----
2024-04-14 02:50 pm N 1.9 4.1------ 60.3-----
2024-04-14 02:40 pm N 2.9 2.9------ 61.3-----
2024-04-14 02:30 pm N 2.9 2.9------ 61.7-----
2024-04-14 02:20 pm N 1.0 2.9------ 63.1-----
2024-04-14 02:10 pm- 0.0 1.9------ 63.0-----
2024-04-14 02:00 pm N 1.9 2.9------ 60.4-----
2024-04-14 01:50 pm W 1.9 2.9------ 67.1-----
2024-04-14 01:40 pm NW 2.9 4.1------ 65.3-----
2024-04-14 01:30 pm NW 1.9 6.0------ 63.0-----
2024-04-14 01:20 pmNNW 2.9 5.1------ 62.1-----
2024-04-14 01:10 pm N 1.0 4.1------ 62.1-----
2024-04-14 01:00 pmESE 2.9 6.0------ 63.5-----
2024-04-14 12:50 pm SE 2.9 5.1------ 62.4-----
2024-04-14 12:40 pmSSE 1.9 5.1------ 63.5-----
2024-04-14 12:30 pm S 1.0 4.1------ 62.6-----
2024-04-14 12:20 pm NE 1.9------- 61.3-----
2024-04-14 12:10 pm SE 1.9 4.1------ 61.5-----
2024-04-14 12:00 pm E 2.9 5.1------ 60.3-----
2024-04-14 11:50 amSSE 2.9 5.1------ 59.2-----
2024-04-14 11:40 am SE 2.9 6.0------ 57.6-----
2024-04-14 11:30 am SE 2.9 5.1------ 58.3-----
2024-04-14 11:20 am SE 2.9 5.1------ 57.0-----
2024-04-14 11:10 amSSE 2.9 6.0------ 55.4-----
2024-04-14 11:00 amSSE 5.1 8.0------ 53.4-----
2024-04-14 10:50 am SE 5.1 6.0------ 55.2-----